Robstown, TX

4:43 PM CDT on April 19, 2018 (GMT -0500)
Robstown

Weather History for KRBO - March, 2013

Change the Weather History Date:

Friday, March 1, 2013

  Actual Average (KCRP) Record (KCRP)
Temperature  
Mean Temperature 58 °F -  
Max Temperature 76 °F 70 °F 92 °F (1975)
Min Temperature 41 °F 51 °F 28 °F (1890)
Degree Days  
Heating Degree Days 6    
Growing Degree Days 8 (Base 50)    
Moisture  
Dew Point 27 °F    
Average Humidity 34    
Maximum Humidity 65    
Minimum Humidity 9    
Precipitation  
Precipitation 0.00 in - - ()
Sea Level Pressure  
Sea Level Pressure 30.22 in    
Wind  
Wind Speed 5 mph (West)    
Max Wind Speed 17 mph    
Max Gust Speed 29 mph    
Visibility 10 miles    
Events      
Averages and records for this station are not official NWS values.
T = Trace of Precipitation, MM = Missing Value Source: NWS Daily Summary

Daily Weather History Graph

Daily Weather History Graph

Search for Another Location

Airport or City:

Astronomy

Mar. 01, 2013 Rise Set
Actual Time 6:54 AM CST 6:31 PM CST
Civil Twilight 6:31 AM CST 6:54 PM CST
Nautical Twilight 6:04 AM CST 7:22 PM CST
Astronomical Twilight 5:37 AM CST 7:49 PM CST
Moon 10:37 PM CST (3/1) 9:08 AM CST (3/1)
Length of Visible Light 12h 23m
Length of Day
11h 36m
Waning Gibbous, 83% of the Moon is Illuminated
Mar 1
Waning Gibbous
Mar 4
Last Quarter
Mar 11
New
Mar 19
First Quarter
Mar 27
Full

Hourly Weather History & Observations

Time (CST) Temp. Windchill Dew Point Humidity Pressure Visibility Wind Dir Wind Speed Gust Speed Precip Events Conditions
12:15 AM 47.3 °F - 19.4 °F 33% 30.28 in 10.0 mi SW 5.8 mph - N/A   Clear
12:35 AM 47.5 °F - 19.9 °F 34% 30.28 in 10.0 mi WSW 3.5 mph - N/A   Clear
1:15 AM 49.3 °F - 21.6 °F 34% 30.27 in 10.0 mi Calm Calm - N/A   Clear
1:35 AM 48.7 °F - 21.7 °F 35% 30.27 in 10.0 mi Calm Calm - N/A   Clear
2:15 AM 47.5 °F - 21.0 °F 35% 30.26 in 10.0 mi Calm Calm - N/A   Clear
2:35 AM 48.2 °F - 21.0 °F 34% 30.26 in 10.0 mi WSW 3.5 mph - N/A   Clear
3:15 AM 47.3 °F - 20.8 °F 35% 30.25 in 10.0 mi Calm Calm - N/A   Clear
3:55 AM 47.7 °F - 23.0 °F 38% 30.25 in 10.0 mi Calm Calm - N/A   Clear
4:15 AM 46.8 °F - 22.8 °F 39% 30.24 in 10.0 mi WNW 3.5 mph - N/A   Clear
4:35 AM 45.9 °F 44.6 °F 24.4 °F 43% 30.25 in 10.0 mi WNW 3.5 mph - N/A   Clear
5:15 AM 45.5 °F 44.2 °F 24.4 °F 44% 30.25 in 10.0 mi NW 3.5 mph - N/A   Clear
5:35 AM 44.1 °F 41.5 °F 23.9 °F 45% 30.25 in 10.0 mi NNW 4.6 mph - N/A   Clear
5:55 AM 44.1 °F 42.5 °F 25.2 °F 47% 30.26 in 10.0 mi NNW 3.5 mph - N/A   Clear
6:15 AM 43.0 °F 40.3 °F 24.4 °F 48% 30.27 in 10.0 mi NNW 4.6 mph - N/A   Clear
6:35 AM 41.7 °F 38.0 °F 24.1 °F 50% 30.26 in 10.0 mi North 5.8 mph - N/A   Clear
6:55 AM 41.4 °F 36.8 °F 23.7 °F 50% 30.27 in 10.0 mi North 6.9 mph - N/A   Clear
7:15 AM 41.0 °F 36.4 °F 23.7 °F 50% 30.28 in 10.0 mi North 6.9 mph - N/A   Clear
7:35 AM 42.6 °F 39.0 °F 24.8 °F 49% 30.29 in 10.0 mi North 5.8 mph - N/A   Clear
7:55 AM 46.8 °F - 26.8 °F 46% 30.29 in 10.0 mi North 4.6 mph - N/A   Clear
8:15 AM 49.1 °F - 28.2 °F 44% 30.30 in 10.0 mi North 5.8 mph - N/A   Clear
8:35 AM 51.6 °F - 27.3 °F 39% 30.30 in 10.0 mi North 4.6 mph - N/A   Clear
8:55 AM 54.9 °F - 26.2 °F 33% 30.30 in 10.0 mi Calm Calm - N/A   Clear
9:15 AM 57.6 °F - 26.2 °F 30% 30.30 in 10.0 mi Calm Calm - N/A   Clear
9:35 AM 60.1 °F - 25.9 °F 27% 30.30 in 10.0 mi West 3.5 mph - N/A   Clear
10:15 AM 63.5 °F - 24.3 °F 22% 30.29 in 10.0 mi WSW 3.5 mph - N/A   Clear
10:35 AM 64.8 °F - 24.4 °F 22% 30.29 in 10.0 mi SW 4.6 mph - N/A   Clear
10:55 AM 64.9 °F - 23.9 °F 21% 30.29 in 10.0 mi Calm Calm - N/A   Clear
11:15 AM 66.6 °F - 23.2 °F 19% 30.28 in 10.0 mi NW 5.8 mph - N/A   Clear
11:35 AM 67.6 °F - 22.6 °F 18% 30.28 in 10.0 mi NNW 5.8 mph - N/A   Clear
12:15 PM 70.5 °F - 21.4 °F 16% 30.25 in 10.0 mi West 6.9 mph - N/A   Clear
12:35 PM 70.5 °F - 20.7 °F 15% 30.23 in 10.0 mi Calm Calm - N/A   Clear
1:15 PM 72.7 °F - 18.7 °F 13% 30.20 in 10.0 mi WSW 12.7 mph - N/A   Clear
1:35 PM 72.5 °F - 18.3 °F 13% 30.20 in 10.0 mi West 5.8 mph - N/A   Clear
1:55 PM 73.6 °F - 18.3 °F 12% 30.18 in 10.0 mi WSW 4.6 mph - N/A   Clear
2:15 PM 73.6 °F - 17.6 °F 12% 30.17 in 10.0 mi NW 8.1 mph - N/A   Clear
2:35 PM 73.9 °F - 17.4 °F 12% 30.16 in 10.0 mi SW 10.4 mph 17.3 mph N/A   Clear
3:15 PM 74.3 °F - 16.0 °F 11% 30.14 in 10.0 mi Calm Calm - N/A   Clear
3:35 PM 75.4 °F - 15.3 °F 10% 30.14 in 10.0 mi WNW 6.9 mph - N/A   Clear
3:55 PM 76.5 °F - 14.2 °F 9% 30.14 in 10.0 mi WNW 6.9 mph 24.2 mph N/A   Clear
4:15 PM 75.4 °F - 13.6 °F 10% 30.13 in 10.0 mi Calm Calm - N/A   Clear
4:35 PM 76.3 °F - 12.6 °F 9% 30.13 in 10.0 mi WNW 4.6 mph 19.6 mph N/A   Clear
4:55 PM 76.1 °F - 12.9 °F 9% 30.13 in 10.0 mi WNW 12.7 mph - N/A   Clear
5:15 PM 75.2 °F - 12.7 °F 9% 30.13 in 10.0 mi Calm Calm - N/A   Clear
5:35 PM 70.9 °F - 29.7 °F 22% 30.13 in 10.0 mi SSE 13.8 mph - N/A   Clear
5:55 PM 68.5 °F - 31.8 °F 26% 30.14 in 10.0 mi SE 17.3 mph - N/A   Clear
6:15 PM 66.7 °F - 31.6 °F 27% 30.15 in 10.0 mi SE 15.0 mph - N/A   Clear
6:35 PM 64.8 °F - 32.4 °F 30% 30.15 in 10.0 mi SE 13.8 mph - N/A   Clear
6:55 PM 63.1 °F - 32.9 °F 32% 30.15 in 10.0 mi SE 12.7 mph - N/A   Clear
7:15 PM 61.3 °F - 35.6 °F 38% 30.16 in 10.0 mi SE 12.7 mph - N/A   Clear
7:35 PM 60.6 °F - 36.7 °F 41% 30.16 in 10.0 mi SE 11.5 mph - N/A   Clear
7:55 PM 59.5 °F - 37.4 °F 44% 30.17 in 10.0 mi SSE 10.4 mph - N/A   Clear
8:15 PM 58.8 °F - 38.7 °F 47% 30.17 in 10.0 mi SSE 11.5 mph - N/A   Clear
8:35 PM 58.1 °F - 38.7 °F 48% 30.17 in 10.0 mi SSE 9.2 mph - N/A   Clear
8:55 PM 57.2 °F - 39.4 °F 51% 30.17 in 10.0 mi SSE 8.1 mph - N/A   Clear
9:15 PM 56.3 °F - 39.7 °F 54% 30.17 in 10.0 mi South 10.4 mph - N/A   Clear
9:35 PM 56.7 °F - 41.2 °F 56% 30.18 in 10.0 mi South 9.2 mph - N/A   Clear
9:55 PM 56.1 °F - 41.2 °F 57% 30.20 in 10.0 mi SSW 6.9 mph - N/A   Clear
10:15 PM 57.7 °F - 43.5 °F 59% 30.24 in 10.0 mi East 8.1 mph 28.8 mph N/A   Clear
10:35 PM 58.1 °F - 43.2 °F 58% 30.25 in 10.0 mi SW 4.6 mph - N/A   Clear
10:55 PM 56.3 °F - 41.2 °F 57% 30.25 in 10.0 mi Calm Calm - N/A   Clear
11:15 PM 54.5 °F - 39.7 °F 57% 30.25 in 10.0 mi Calm Calm - N/A   Clear
11:35 PM 52.3 °F - 40.6 °F 64% 30.26 in 10.0 mi Calm Calm - N/A   Clear
11:55 PM 51.8 °F - 40.3 °F 65% 30.25 in 10.0 mi Calm Calm - N/A   Clear